| time (UTC) | temp F | wind direction | speed MPH | gust MPH | rain 1hr in | rain 24hr in | rain mn in | humidity % | barometer mb |
| 20260904194536 | 63 | 93 | 0.0 | 0.0 | 0.00 | 0.02 | 0.02 | 74 | 1016.7 |
| 20260904193034 | 62 | 22 | 0.0 | 1.0 | 0.00 | 0.02 | 0.02 | 75 | 1016.9 |
| 20260904191531 | 62 | 359 | 0.0 | 2.0 | 0.00 | 0.02 | 0.02 | 75 | 1016.9 |
| 20260904184534 | 60 | 22 | 0.0 | 0.0 | 0.00 | 0.02 | 0.02 | 81 | 1017.1 |
| 20260904183044 | 60 | 314 | 0.0 | 0.0 | 0.00 | 0.02 | 0.02 | 82 | 1017.1 |
| 20260904180034 | 57 | 292 | 0.0 | 0.0 | 0.00 | 0.02 | 0.02 | 86 | 1017.0 |
| 20260904174534 | 57 | 292 | 0.0 | 0.0 | 0.00 | 0.02 | 0.02 | 87 | 1017.1 |
| 20260904173033 | 58 | 255 | 0.0 | 2.0 | 0.00 | 0.02 | 0.02 | 86 | 1017.1 |
| 20260904171607 | 58 | 257 | 0.0 | 4.0 | 0.00 | 0.02 | 0.02 | 88 | 1017.0 |
| 20260904170053 | 58 | 299 | 0.0 | 1.0 | 0.00 | 0.02 | 0.02 | 89 | 1017.0 |
| 20260904164534 | 57 | 359 | 0.0 | 3.0 | 0.00 | 0.02 | 0.02 | 92 | 1016.9 |
| 20260904161607 | 54 | 157 | 0.0 | 0.0 | 0.00 | 0.02 | 0.02 | 96 | 1016.9 |
| 20260904160034 | 54 | 157 | 0.0 | 0.0 | 0.00 | 0.02 | 0.02 | 98 | 1016.9 |
| 20260904154534 | 53 | 157 | 0.0 | 0.0 | 0.00 | 0.02 | 0.02 | 98 | 1016.8 |
| 20260904153033 | 52 | 168 | 0.0 | 0.0 | 0.00 | 0.02 | 0.02 | 98 | 1016.7 |
| 20260904150034 | 51 | 225 | 0.0 | 0.0 | 0.00 | 0.02 | 0.02 | 98 | 1016.5 |
| 20260904144643 | 51 | 225 | 0.0 | 0.0 | 0.00 | 0.02 | 0.02 | 98 | 1016.4 |
| 20260904143035 | 50 | 225 | 0.0 | 0.0 | 0.00 | 0.02 | 0.02 | 98 | 1016.3 |
| 20260904141535 | 50 | 225 | 0.0 | 0.0 | 0.00 | 0.02 | 0.02 | 98 | 1016.1 |
| 20260904134535 | 50 | 225 | 0.0 | 0.0 | 0.01 | 0.02 | 0.02 | 98 | 1015.8 |
| 20260904133035 | 50 | 225 | 0.0 | 0.0 | 0.01 | 0.02 | 0.02 | 98 | 1015.7 |
| 20260904130035 | 49 | 225 | 0.0 | 0.0 | 0.00 | 0.01 | 0.01 | 98 | 1015.3 |
| 20260904124648 | 50 | 225 | 0.0 | 0.0 | 0.00 | 0.01 | 0.01 | 98 | 1015.3 |
| 20260904121534 | 49 | 225 | 0.0 | 0.0 | 0.00 | 0.01 | 0.01 | 98 | 1015.2 |
| 20260904114649 | 50 | 225 | 0.0 | 0.0 | 0.00 | 0.01 | 0.01 | 98 | 1014.9 |
| 20260904113110 | 50 | 225 | 0.0 | 0.0 | 0.00 | 0.01 | 0.01 | 98 | 1014.8 |
| 20260904111532 | 50 | 225 | 0.0 | 0.0 | 0.01 | 0.01 | 0.01 | 98 | 1014.7 |
| 20260904110033 | 50 | 225 | 0.0 | 0.0 | 0.01 | 0.01 | 0.01 | 98 | 1014.6 |
| 20260904101532 | 49 | 225 | 0.0 | 0.0 | 0.00 | 0.00 | 0.00 | 97 | 1014.2 |
| 20260904100034 | 49 | 225 | 0.0 | 0.0 | 0.00 | 0.00 | 0.00 | 97 | 1014.2 |
| 20260904093034 | 48 | 204 | 0.0 | 1.0 | 0.00 | 0.00 | 0.00 | 97 | 1014.0 |
| 20260904091532 | 48 | 202 | 0.0 | 0.0 | 0.00 | 0.00 | 0.00 | 97 | 1014.0 |
| 20260904090034 | 49 | 202 | 0.0 | 0.0 | 0.00 | 0.00 | 0.00 | 97 | 1013.9 |
| 20260904083033 | 49 | 234 | 0.0 | 1.0 | 0.00 | 0.00 | 0.00 | 96 | 1013.8 |
| 20260904081535 | 49 | 247 | 0.0 | 0.0 | 0.00 | 0.00 | 0.00 | 96 | 1013.7 |
| 20260904074537 | 49 | 247 | 0.0 | 0.0 | 0.00 | 0.00 | 0.00 | 96 | 1013.8 |
| 20260904073033 | 49 | 247 | 0.0 | 0.0 | 0.00 | 0.00 | 0.00 | 96 | 1013.8 |
| 20260904071535 | 49 | 247 | 0.0 | 0.0 | 0.00 | 0.00 | 0.00 | 96 | 1013.8 |
| 20260904070037 | 49 | 247 | 0.0 | 0.0 | 0.00 | 0.00 | 0.00 | 95 | 1013.7 |
| 20260904064535 | 50 | 247 | 0.0 | 0.0 | 0.00 | 0.00 | 0.00 | 95 | 1013.7 |
| 20260904063036 | 50 | 247 | 0.0 | 0.0 | 0.00 | 0.00 | 0.00 | 95 | 1013.6 |
| 20260904061536 | 50 | 247 | 0.0 | 0.0 | 0.00 | 0.00 | 0.00 | 95 | 1013.6 |
| 20260904060032 | 51 | 247 | 0.0 | 0.0 | 0.00 | 0.00 | 0.00 | 94 | 1013.6 |
| 20260904054609 | 51 | 273 | 0.0 | 1.0 | 0.00 | 0.00 | 0.00 | 94 | 1013.6 |
| 20260904051607 | 52 | 315 | 0.0 | 0.0 | 0.00 | 0.00 | 0.00 | 94 | 1013.6 |
| 20260904050109 | 52 | 263 | 0.0 | 0.0 | 0.00 | 0.00 | 0.00 | 93 | 1013.6 |
| 20260904044609 | 52 | 202 | 0.0 | 0.0 | 0.00 | 0.00 | 0.00 | 93 | 1013.7 |
| 20260904043109 | 53 | 202 | 0.0 | 0.0 | 0.00 | 0.00 | 0.00 | 93 | 1013.7 |
| 20260904041536 | 53 | 202 | 0.0 | 0.0 | 0.00 | 0.00 | 0.00 | 92 | 1013.7 |
| 20260904040036 | 53 | 202 | 0.0 | 1.0 | 0.00 | 0.00 | 0.00 | 90 | 1013.6 |
| 20260904031535 | 53 | 292 | 0.0 | 0.0 | 0.00 | 0.00 | 0.00 | 87 | 1013.3 |
| 20260904030111 | 54 | 332 | 0.0 | 0.0 | 0.00 | 0.00 | 0.00 | 86 | 1013.2 |
| 20260904024536 | 55 | 358 | 0.0 | 1.0 | 0.00 | 0.01 | 0.00 | 85 | 1013.1 |
| 20260904023035 | 56 | 337 | 0.0 | 0.0 | 0.00 | 0.03 | 0.00 | 84 | 1013.0 |
| 20260904021535 | 56 | 4 | 0.0 | 2.0 | 0.00 | 0.07 | 0.00 | 83 | 1012.9 |
| 20260904020035 | 57 | 349 | 0.0 | 4.0 | 0.00 | 0.10 | 0.00 | 83 | 1012.8 |
| 20260904014534 | 57 | 353 | 0.0 | 3.0 | 0.00 | 0.14 | 0.00 | 82 | 1012.8 |
| 20260904013036 | 57 | 350 | 0.0 | 2.0 | 0.00 | 0.14 | 0.00 | 80 | 1012.8 |
| 20260904011536 | 59 | 346 | 0.0 | 3.0 | 0.00 | 0.14 | 0.00 | 79 | 1012.8 |
| 20260904010035 | 60 | 360 | 0.0 | 4.0 | 0.00 | 0.14 | 0.00 | 77 | 1012.7 |
| 20260904003145 | 61 | 34 | 1.0 | 6.0 | 0.00 | 0.17 | 0.00 | 76 | 1012.6 |
| 20260904001642 | 62 | 14 | 1.0 | 7.0 | 0.00 | 0.18 | 0.00 | 76 | 1012.6 |
| 20260904000038 | 60 | 18 | 0.0 | 4.0 | 0.00 | 0.19 | 0.00 | 84 | 1012.8 |
| 20260903233036 | 58 | 322 | 0.0 | 3.0 | 0.00 | 0.20 | 0.00 | 82 | 1012.8 |
| 20260903231532 | 59 | 296 | 0.0 | 1.0 | 0.00 | 0.21 | 0.00 | 81 | 1012.8 |
| 20260903230112 | 60 | 331 | 0.0 | 5.0 | 0.00 | 0.22 | 0.00 | 77 | 1012.9 |
| 20260903224535 | 61 | 341 | 0.0 | 4.0 | 0.00 | 0.22 | 0.00 | 75 | 1012.8 |
| 20260903223034 | 62 | 7 | 0.0 | 4.0 | 0.00 | 0.22 | 0.00 | 73 | 1012.7 |
| 20260903220033 | 66 | 296 | 0.0 | 4.0 | 0.00 | 0.23 | 0.00 | 67 | 1012.5 |
| 20260903214607 | 68 | 353 | 0.0 | 6.0 | 0.00 | 0.23 | 0.00 | 64 | 1012.4 |
| 20260903210032 | 69 | 321 | 0.0 | 4.0 | 0.00 | 0.26 | 0.00 | 66 | 1012.6 |
| 20260903203035 | 69 | 312 | 0.0 | 4.0 | 0.00 | 0.27 | 0.00 | 71 | 1012.8 |
| 20260903201644 | 67 | 271 | 0.0 | 1.0 | 0.00 | 0.28 | 0.00 | 76 | 1013.0 |
| 20260903200036 | 65 | 323 | 0.0 | 1.0 | 0.00 | 0.28 | 0.00 | 76 | 1013.2 |